Starlink 30290

operational
NORAD ID: 57858 Int'l Des: 2023-141 Owner: SPXS Country: US Constellation: starlink
LEOCIRCULAR

关于 Starlink 30290

正在加载描述...

实时位置

正在加载3D地球...

即将过境

高度历史

Altitude vs Time

uPlot chart will show altitude changes over time

两行轨道根数

1 57858U 23141U 25257.55482549 -.00000568 00000-0 -70656-5 0 9997
2 57858 53.1609 22.0583 0001080 73.1506 286.9613 15.30191354113361
Epoch: Sep 14, 2025 • Age: 21 hours

当前状态

高度 490.6 km
速度 7.62 km/s
星下点 -43.65°S, 87.53°E
发射日期 Sep 12, 2023
运行时间 2 years
类型 internet

技术详情

分类 Payload
质量 730.00 kg
干质量 700.00 kg
总质量 730.00 kg
长度 0.30 m
直径 4.10 m
跨度 29.00 m
形状 Box + pan
制造商 SPXS
平台类型 Starlink V2M
阶段状态 In Orbit
所有者/国家 SPXS/US

大型星座

Loading constellations...